RADUGA 32 1 23448U 94087A 12135.25502172 -.00000115 00000-0 10000-3 0 5050 2 23448 12.3658 40.0984 0004659 89.5595 270.4166 1.00261025 81336 RADUGA-1 4 1 25642U 99010A 12135.31770279 -.00000015 00000-0 10000-3 0 5971 2 25642 11.2774 54.1588 0001328 56.0682 303.8511 1.00190578 48379 RADUGA-1 5 1 26477U 00049A 12136.92528384 -.00000334 00000-0 10000-3 0 3611 2 26477 8.9016 53.9795 0004379 356.1938 259.7893 1.00299660 42897 RADUGA-1 7 1 28194U 04010A 12134.49393355 .00000096 00000-0 10000-3 0 5840 2 28194 6.3368 67.6484 0003820 1.2354 358.6348 1.00254639 29788 RADUGA-1M 1 1 32373U 07058A 12135.77818676 -.00000050 00000-0 10000-3 0 2803 2 32373 0.0207 102.5896 0004004 342.7922 137.6603 1.00271909 17123